Year,Month,Day,Hour,Minute,Value (Times are PST for temperature in C)
2010,10,17,00,00,5.20
2010,10,17,00,01,5.20
2010,10,17,00,02,5.20
2010,10,17,00,03,5.10
2010,10,17,00,04,5.10
2010,10,17,00,05,5.10
2010,10,17,00,06,5.10
2010,10,17,00,07,5.00
2010,10,17,00,08,4.90
2010,10,17,00,09,4.90
2010,10,17,00,10,4.90
2010,10,17,00,11,4.80
2010,10,17,00,12,4.80
2010,10,17,00,13,4.80
2010,10,17,00,14,4.80
2010,10,17,00,15,4.70
2010,10,17,00,16,4.70
2010,10,17,00,17,4.70
2010,10,17,00,18,4.60
2010,10,17,00,19,4.60
2010,10,17,00,20,4.60
2010,10,17,00,21,4.60
2010,10,17,00,22,4.60
2010,10,17,00,23,4.60
2010,10,17,00,24,4.60
2010,10,17,00,25,4.60
2010,10,17,00,26,4.60
2010,10,17,00,27,4.60
2010,10,17,00,28,4.60
2010,10,17,00,29,4.60
2010,10,17,00,30,4.60
2010,10,17,00,31,4.60
2010,10,17,00,32,4.70
2010,10,17,00,33,4.70
2010,10,17,00,34,4.70
2010,10,17,00,35,4.70
2010,10,17,00,36,4.60
2010,10,17,00,37,4.60
2010,10,17,00,38,4.60
2010,10,17,00,39,4.60
2010,10,17,00,40,4.60
2010,10,17,00,41,4.60
2010,10,17,00,42,4.60
2010,10,17,00,43,4.60
2010,10,17,00,44,4.60
2010,10,17,00,45,4.60
2010,10,17,00,46,4.60
2010,10,17,00,47,4.60
2010,10,17,00,48,4.60
2010,10,17,00,49,4.60
2010,10,17,00,50,4.70
2010,10,17,00,51,4.70
2010,10,17,00,52,4.70
2010,10,17,00,53,4.70
2010,10,17,00,54,4.70
2010,10,17,00,55,4.70
2010,10,17,00,56,4.70
2010,10,17,00,57,4.70
2010,10,17,00,58,4.80
2010,10,17,00,59,4.80
2010,10,17,01,00,4.80
2010,10,17,01,01,4.80
2010,10,17,01,02,4.80
2010,10,17,01,03,4.80
2010,10,17,01,04,4.80
2010,10,17,01,05,4.80
2010,10,17,01,06,4.70
2010,10,17,01,07,4.70
2010,10,17,01,08,4.70
2010,10,17,01,09,4.60
2010,10,17,01,10,4.60
2010,10,17,01,11,4.60
2010,10,17,01,12,4.60
2010,10,17,01,13,4.50
2010,10,17,01,14,4.50
2010,10,17,01,15,4.50
2010,10,17,01,16,4.50
2010,10,17,01,17,4.40
2010,10,17,01,18,4.40
2010,10,17,01,19,4.40
2010,10,17,01,20,4.50
2010,10,17,01,21,4.50
2010,10,17,01,22,4.50
2010,10,17,01,23,4.50
2010,10,17,01,24,4.50
2010,10,17,01,25,4.50
2010,10,17,01,26,4.50
2010,10,17,01,27,4.50
2010,10,17,01,28,4.50
2010,10,17,01,29,4.50
2010,10,17,01,30,4.40
2010,10,17,01,31,4.40
2010,10,17,01,32,4.40
2010,10,17,01,33,4.30
2010,10,17,01,34,4.30
2010,10,17,01,35,4.20
2010,10,17,01,36,4.20
2010,10,17,01,37,4.20
2010,10,17,01,38,4.20
2010,10,17,01,39,4.10
2010,10,17,01,40,4.10
2010,10,17,01,41,4.20
2010,10,17,01,42,4.20
2010,10,17,01,43,4.20
2010,10,17,01,44,4.20
2010,10,17,01,45,4.20
2010,10,17,01,46,4.20
2010,10,17,01,47,4.20
2010,10,17,01,48,4.20
2010,10,17,01,49,4.20
2010,10,17,01,50,4.20
2010,10,17,01,51,4.20
2010,10,17,01,52,4.20
2010,10,17,01,53,4.20
2010,10,17,01,54,4.20
2010,10,17,01,55,4.20
2010,10,17,01,56,4.20
2010,10,17,01,57,4.20
2010,10,17,01,58,4.20
2010,10,17,01,59,4.20
2010,10,17,02,00,4.20
2010,10,17,02,01,4.20
2010,10,17,02,02,4.20
2010,10,17,02,03,4.20
2010,10,17,02,04,4.20
2010,10,17,02,05,4.10
2010,10,17,02,06,4.10
2010,10,17,02,07,4.10
2010,10,17,02,08,4.10
2010,10,17,02,09,4.10
2010,10,17,02,10,4.10
2010,10,17,02,11,4.10
2010,10,17,02,12,4.10
2010,10,17,02,13,4.00
2010,10,17,02,14,4.00
2010,10,17,02,15,4.00
2010,10,17,02,16,4.00
2010,10,17,02,17,4.00
2010,10,17,02,18,4.00
2010,10,17,02,19,4.00
2010,10,17,02,20,4.10
2010,10,17,02,21,4.10
2010,10,17,02,22,4.10
2010,10,17,02,23,4.10
2010,10,17,02,24,4.10
2010,10,17,02,25,4.10
2010,10,17,02,26,4.10
2010,10,17,02,27,4.10
2010,10,17,02,28,4.10
2010,10,17,02,29,4.00
2010,10,17,02,30,4.00
2010,10,17,02,31,4.00
2010,10,17,02,32,3.90
2010,10,17,02,33,3.90
2010,10,17,02,34,3.80
2010,10,17,02,35,3.80
2010,10,17,02,36,3.80
2010,10,17,02,37,3.70
2010,10,17,02,38,3.70
2010,10,17,02,39,3.70
2010,10,17,02,40,3.70
2010,10,17,02,41,3.70
2010,10,17,02,42,3.70
2010,10,17,02,43,3.80
2010,10,17,02,44,3.80
2010,10,17,02,45,3.90
2010,10,17,02,46,3.90
2010,10,17,02,47,4.00
2010,10,17,02,48,4.00
2010,10,17,02,49,4.00
2010,10,17,02,50,4.10
2010,10,17,02,51,4.10
2010,10,17,02,52,4.10
2010,10,17,02,53,4.10
2010,10,17,02,54,4.10
2010,10,17,02,55,4.10
2010,10,17,02,56,4.10
2010,10,17,02,57,4.10
2010,10,17,02,58,4.10
2010,10,17,02,59,4.10
2010,10,17,03,00,4.10
2010,10,17,03,01,4.10
2010,10,17,03,02,4.10
2010,10,17,03,03,4.00
2010,10,17,03,04,4.00
2010,10,17,03,05,4.00
2010,10,17,03,06,4.00
2010,10,17,03,07,4.00
2010,10,17,03,08,4.00
2010,10,17,03,09,3.90
2010,10,17,03,10,3.90
2010,10,17,03,11,3.90
2010,10,17,03,12,3.90
2010,10,17,03,13,3.80
2010,10,17,03,14,3.80
2010,10,17,03,15,3.80
2010,10,17,03,16,3.80
2010,10,17,03,17,3.80
2010,10,17,03,18,3.80
2010,10,17,03,19,3.80
2010,10,17,03,20,3.70
2010,10,17,03,21,3.70
2010,10,17,03,22,3.70
2010,10,17,03,23,3.70
2010,10,17,03,24,3.70
2010,10,17,03,25,3.70
2010,10,17,03,26,3.70
2010,10,17,03,27,3.70
2010,10,17,03,28,3.70
2010,10,17,03,29,3.80
2010,10,17,03,30,3.80
2010,10,17,03,31,3.80
2010,10,17,03,32,3.80
2010,10,17,03,33,3.80
2010,10,17,03,34,3.80
2010,10,17,03,35,3.80
2010,10,17,03,36,3.80
2010,10,17,03,37,3.80
2010,10,17,03,38,3.80
2010,10,17,03,39,3.80
2010,10,17,03,40,3.80
2010,10,17,03,41,3.80
2010,10,17,03,42,3.80
2010,10,17,03,43,3.80
2010,10,17,03,44,3.70
2010,10,17,03,45,3.70
2010,10,17,03,46,3.70
2010,10,17,03,47,3.60
2010,10,17,03,48,3.60
2010,10,17,03,49,3.50
2010,10,17,03,50,3.50
2010,10,17,03,51,3.50
2010,10,17,03,52,3.50
2010,10,17,03,53,3.50
2010,10,17,03,54,3.50
2010,10,17,03,55,3.50
2010,10,17,03,56,3.50
2010,10,17,03,57,3.50
2010,10,17,03,58,3.50
2010,10,17,03,59,3.40
2010,10,17,04,00,3.40
2010,10,17,04,01,3.40
2010,10,17,04,02,3.40
2010,10,17,04,03,3.30
2010,10,17,04,04,3.30
2010,10,17,04,05,3.30
2010,10,17,04,06,3.30
2010,10,17,04,07,3.20
2010,10,17,04,08,3.20
2010,10,17,04,09,3.20
2010,10,17,04,10,3.10
2010,10,17,04,11,3.10
2010,10,17,04,12,3.10
2010,10,17,04,13,3.10
2010,10,17,04,14,3.10
2010,10,17,04,15,3.10
2010,10,17,04,16,3.10
2010,10,17,04,17,3.10
2010,10,17,04,18,3.10
2010,10,17,04,19,3.10
2010,10,17,04,20,3.10
2010,10,17,04,21,3.10
2010,10,17,04,22,3.10
2010,10,17,04,23,3.10
2010,10,17,04,24,3.10
2010,10,17,04,25,3.20
2010,10,17,04,26,3.20
2010,10,17,04,27,3.20
2010,10,17,04,28,3.20
2010,10,17,04,29,3.20
2010,10,17,04,30,3.20
2010,10,17,04,31,3.20
2010,10,17,04,32,3.20
2010,10,17,04,33,3.20
2010,10,17,04,34,3.20
2010,10,17,04,35,3.20
2010,10,17,04,36,3.20
2010,10,17,04,37,3.20
2010,10,17,04,38,3.20
2010,10,17,04,39,3.10
2010,10,17,04,40,3.10
2010,10,17,04,41,3.10
2010,10,17,04,42,3.10
2010,10,17,04,43,3.10
2010,10,17,04,44,3.10
2010,10,17,04,45,3.10
2010,10,17,04,46,3.10
2010,10,17,04,47,3.10
2010,10,17,04,48,3.10
2010,10,17,04,49,3.10
2010,10,17,04,50,3.10
2010,10,17,04,51,3.10
2010,10,17,04,52,3.10
2010,10,17,04,53,3.20
2010,10,17,04,54,3.20
2010,10,17,04,55,3.20
2010,10,17,04,56,3.20
2010,10,17,04,57,3.30
2010,10,17,04,58,3.30
2010,10,17,04,59,3.30
2010,10,17,05,00,3.30
2010,10,17,05,01,3.40
2010,10,17,05,02,3.40
2010,10,17,05,03,3.50
2010,10,17,05,04,3.50
2010,10,17,05,05,3.50
2010,10,17,05,06,3.50
2010,10,17,05,07,3.50
2010,10,17,05,08,3.50
2010,10,17,05,09,3.50
2010,10,17,05,10,3.50
2010,10,17,05,11,3.40
2010,10,17,05,12,3.40
2010,10,17,05,13,3.40
2010,10,17,05,14,3.30
2010,10,17,05,15,3.30
2010,10,17,05,16,3.30
2010,10,17,05,17,3.30
2010,10,17,05,18,3.30
2010,10,17,05,19,3.30
2010,10,17,05,20,3.30
2010,10,17,05,21,3.30
2010,10,17,05,22,3.30
2010,10,17,05,23,3.30
2010,10,17,05,24,3.30
2010,10,17,05,25,3.20
2010,10,17,05,26,3.10
2010,10,17,05,27,3.10
2010,10,17,05,28,3.00
2010,10,17,05,29,2.90
2010,10,17,05,30,2.90
2010,10,17,05,31,2.90
2010,10,17,05,32,2.90
2010,10,17,05,33,2.90
2010,10,17,05,34,2.90
2010,10,17,05,35,2.90
2010,10,17,05,36,2.90
2010,10,17,05,37,2.90
2010,10,17,05,38,2.90
2010,10,17,05,39,2.90
2010,10,17,05,40,2.80
2010,10,17,05,41,2.80
2010,10,17,05,42,2.80
2010,10,17,05,43,2.80
2010,10,17,05,44,2.80
2010,10,17,05,45,2.80
2010,10,17,05,46,2.70
2010,10,17,05,47,2.70
2010,10,17,05,48,2.70
2010,10,17,05,49,2.70
2010,10,17,05,50,2.70
2010,10,17,05,51,2.70
2010,10,17,05,52,2.70
2010,10,17,05,53,2.60
2010,10,17,05,54,2.60
2010,10,17,05,55,2.60
2010,10,17,05,56,2.50
2010,10,17,05,57,2.50
2010,10,17,05,58,2.50
2010,10,17,05,59,2.50
2010,10,17,06,00,2.40
2010,10,17,06,01,2.40
2010,10,17,06,02,2.40
2010,10,17,06,03,2.40
2010,10,17,06,04,2.40
2010,10,17,06,05,2.50
2010,10,17,06,06,2.50
2010,10,17,06,07,2.50
2010,10,17,06,08,2.50
2010,10,17,06,09,2.60
2010,10,17,06,10,2.60
2010,10,17,06,11,2.60
2010,10,17,06,12,2.60
2010,10,17,06,13,2.70
2010,10,17,06,14,2.70
2010,10,17,06,15,2.70
2010,10,17,06,16,2.70
2010,10,17,06,17,2.70
2010,10,17,06,18,2.70
2010,10,17,06,19,2.70
2010,10,17,06,20,2.70
2010,10,17,06,21,2.70
2010,10,17,06,22,2.70
2010,10,17,06,23,2.70
2010,10,17,06,24,2.70
2010,10,17,06,25,2.70
2010,10,17,06,26,2.70
2010,10,17,06,27,2.70
2010,10,17,06,28,2.80
2010,10,17,06,29,2.80
2010,10,17,06,30,2.80
2010,10,17,06,31,2.90
2010,10,17,06,32,2.90
2010,10,17,06,33,2.90
2010,10,17,06,34,2.90
2010,10,17,06,35,3.00
2010,10,17,06,36,3.10
2010,10,17,06,37,3.10
2010,10,17,06,38,3.10
2010,10,17,06,39,3.10
2010,10,17,06,40,3.10
2010,10,17,06,41,3.10
2010,10,17,06,42,3.10
2010,10,17,06,43,3.20
2010,10,17,06,44,3.20
2010,10,17,06,45,3.20
2010,10,17,06,46,3.30
2010,10,17,06,47,3.30
2010,10,17,06,48,3.30
2010,10,17,06,49,3.30
2010,10,17,06,50,3.30
2010,10,17,06,51,3.30
2010,10,17,06,52,3.40
2010,10,17,06,53,3.40
2010,10,17,06,54,3.50
2010,10,17,06,55,3.60
2010,10,17,06,56,3.70
2010,10,17,06,57,3.80
2010,10,17,06,58,3.90
2010,10,17,06,59,4.00
2010,10,17,07,00,4.10
2010,10,17,07,01,4.20
2010,10,17,07,02,4.20
2010,10,17,07,03,4.30
2010,10,17,07,04,4.30
2010,10,17,07,05,4.30
2010,10,17,07,06,4.30
2010,10,17,07,07,4.30
2010,10,17,07,08,4.30
2010,10,17,07,09,4.20
2010,10,17,07,10,4.20
2010,10,17,07,11,4.20
2010,10,17,07,12,4.20
2010,10,17,07,13,4.10
2010,10,17,07,14,4.10
2010,10,17,07,15,4.00
2010,10,17,07,16,4.00
2010,10,17,07,17,4.00
2010,10,17,07,18,4.10
2010,10,17,07,19,4.10
2010,10,17,07,20,4.10
2010,10,17,07,21,4.20
2010,10,17,07,22,4.20
2010,10,17,07,23,4.20
2010,10,17,07,24,4.30
2010,10,17,07,25,4.30
2010,10,17,07,26,4.30
2010,10,17,07,27,4.30
2010,10,17,07,28,4.40
2010,10,17,07,29,4.40
2010,10,17,07,30,4.40
2010,10,17,07,31,4.40
2010,10,17,07,32,4.40
2010,10,17,07,33,4.50
2010,10,17,07,34,4.50
2010,10,17,07,35,4.50
2010,10,17,07,36,4.60
2010,10,17,07,37,4.60
2010,10,17,07,38,4.60
2010,10,17,07,39,4.60
2010,10,17,07,40,4.60
2010,10,17,07,41,4.60
2010,10,17,07,42,4.60
2010,10,17,07,43,4.60
2010,10,17,07,44,4.60
2010,10,17,07,45,4.60
2010,10,17,07,46,4.60
2010,10,17,07,47,4.60
2010,10,17,07,48,4.60
2010,10,17,07,49,4.60
2010,10,17,07,50,4.50
2010,10,17,07,51,4.50
2010,10,17,07,52,4.50
2010,10,17,07,53,4.50
2010,10,17,07,54,4.50
2010,10,17,07,55,4.40
2010,10,17,07,56,4.40
2010,10,17,07,57,4.40
2010,10,17,07,58,4.40
2010,10,17,07,59,4.40
2010,10,17,08,00,4.40
2010,10,17,08,01,4.40
2010,10,17,08,02,4.40
2010,10,17,08,03,4.40
2010,10,17,08,04,4.40
2010,10,17,08,05,4.40
2010,10,17,08,06,4.40
2010,10,17,08,07,4.40
2010,10,17,08,08,4.40
2010,10,17,08,09,4.40
2010,10,17,08,10,4.50
2010,10,17,08,11,4.50
2010,10,17,08,12,4.60
2010,10,17,08,13,4.60
2010,10,17,08,14,4.60
2010,10,17,08,15,4.70
2010,10,17,08,16,4.70
2010,10,17,08,17,4.80
2010,10,17,08,18,4.80
2010,10,17,08,19,4.90
2010,10,17,08,20,4.90
2010,10,17,08,21,4.90
2010,10,17,08,22,5.10
2010,10,17,08,23,5.10
2010,10,17,08,24,5.10
2010,10,17,08,25,5.20
2010,10,17,08,26,5.30
2010,10,17,08,27,5.30
2010,10,17,08,28,5.40
2010,10,17,08,29,5.40
2010,10,17,08,30,5.50
2010,10,17,08,31,5.50
2010,10,17,08,32,5.50
2010,10,17,08,33,5.50
2010,10,17,08,34,5.50
2010,10,17,08,35,5.50
2010,10,17,08,36,5.50
2010,10,17,08,37,5.40
2010,10,17,08,38,5.40
2010,10,17,08,39,5.30
2010,10,17,08,40,5.30
2010,10,17,08,41,5.30
2010,10,17,08,42,5.30
2010,10,17,08,43,5.30
2010,10,17,08,44,5.30
2010,10,17,08,45,5.30
2010,10,17,08,46,5.30
2010,10,17,08,47,5.30
2010,10,17,08,48,5.30
2010,10,17,08,49,5.40
2010,10,17,08,50,5.50
2010,10,17,08,51,5.50
2010,10,17,08,52,5.60
2010,10,17,08,53,5.60
2010,10,17,08,54,5.70
2010,10,17,08,55,5.70
2010,10,17,08,56,5.70
2010,10,17,08,57,5.80
2010,10,17,08,58,5.80
2010,10,17,08,59,5.80
2010,10,17,09,00,5.80
2010,10,17,09,01,5.90
2010,10,17,09,02,5.90
2010,10,17,09,03,5.90
2010,10,17,09,04,6.00
2010,10,17,09,05,6.00
2010,10,17,09,06,6.00
2010,10,17,09,07,6.10
2010,10,17,09,08,6.10
2010,10,17,09,09,6.20
2010,10,17,09,10,6.20
2010,10,17,09,11,6.30
2010,10,17,09,12,6.30
2010,10,17,09,13,6.40
2010,10,17,09,14,6.40
2010,10,17,09,15,6.40
2010,10,17,09,16,6.50
2010,10,17,09,17,6.60
2010,10,17,09,18,6.60
2010,10,17,09,19,6.60
2010,10,17,09,20,6.60
2010,10,17,09,21,6.70
2010,10,17,09,22,6.70
2010,10,17,09,23,6.70
2010,10,17,09,24,6.70
2010,10,17,09,25,6.70
2010,10,17,09,26,6.80
2010,10,17,09,27,6.80
2010,10,17,09,28,6.80
2010,10,17,09,29,6.80
2010,10,17,09,30,6.80
2010,10,17,09,31,6.90
2010,10,17,09,32,6.90
2010,10,17,09,33,7.00
2010,10,17,09,34,7.00
2010,10,17,09,35,7.10
2010,10,17,09,36,7.20
2010,10,17,09,37,7.20
2010,10,17,09,38,7.30
2010,10,17,09,39,7.40
2010,10,17,09,40,7.40
2010,10,17,09,41,7.50
2010,10,17,09,42,7.60
2010,10,17,09,43,7.60
2010,10,17,09,44,7.70
2010,10,17,09,45,7.70
2010,10,17,09,46,7.80
2010,10,17,09,47,7.80
2010,10,17,09,48,7.80
2010,10,17,09,49,7.80
2010,10,17,09,50,7.90
2010,10,17,09,51,7.90
2010,10,17,09,52,7.90
2010,10,17,09,53,7.90
2010,10,17,09,54,7.90
2010,10,17,09,55,7.90
2010,10,17,09,56,7.90
2010,10,17,09,57,7.90
2010,10,17,09,58,7.90
2010,10,17,09,59,8.00
2010,10,17,10,00,8.00
2010,10,17,10,01,8.00
2010,10,17,10,02,8.00
2010,10,17,10,03,8.00
2010,10,17,10,04,8.10
2010,10,17,10,05,8.10
2010,10,17,10,06,8.10
2010,10,17,10,07,8.10
2010,10,17,10,08,8.20
2010,10,17,10,09,8.20
2010,10,17,10,10,8.20
2010,10,17,10,11,8.20
2010,10,17,10,12,8.20
2010,10,17,10,13,8.30
2010,10,17,10,14,8.30
2010,10,17,10,15,8.30
2010,10,17,10,16,8.40
2010,10,17,10,17,8.40
2010,10,17,10,18,8.40
2010,10,17,10,19,8.40
2010,10,17,10,20,8.50
2010,10,17,10,21,8.50
2010,10,17,10,22,8.50
2010,10,17,10,23,8.50
2010,10,17,10,24,8.50
2010,10,17,10,25,8.60
2010,10,17,10,26,8.60
2010,10,17,10,27,8.70
2010,10,17,10,28,8.70
2010,10,17,10,29,8.70
2010,10,17,10,30,8.70
2010,10,17,10,31,8.70
2010,10,17,10,32,8.70
2010,10,17,10,33,8.70
2010,10,17,10,34,8.80
2010,10,17,10,35,8.80
2010,10,17,10,36,8.80
2010,10,17,10,37,8.80
2010,10,17,10,38,8.90
2010,10,17,10,39,8.90
2010,10,17,10,40,8.90
2010,10,17,10,41,8.90
2010,10,17,10,42,9.00
2010,10,17,10,43,9.00
2010,10,17,10,44,9.00
2010,10,17,10,45,9.00
2010,10,17,10,46,9.00
2010,10,17,10,47,9.00
2010,10,17,10,48,9.00
2010,10,17,10,49,9.00
2010,10,17,10,50,9.10
2010,10,17,10,51,9.10
2010,10,17,10,52,9.10
2010,10,17,10,53,9.10
2010,10,17,10,54,9.20
2010,10,17,10,55,9.20
2010,10,17,10,56,9.20
2010,10,17,10,57,9.20
2010,10,17,10,58,9.20
2010,10,17,10,59,9.20
2010,10,17,11,00,9.30
2010,10,17,11,01,9.40
2010,10,17,11,02,9.40
2010,10,17,11,03,9.40
2010,10,17,11,04,9.40
2010,10,17,11,05,9.30
2010,10,17,11,06,9.30
2010,10,17,11,07,9.30
2010,10,17,11,08,9.30
2010,10,17,11,09,9.40
2010,10,17,11,10,9.40
2010,10,17,11,11,9.40
2010,10,17,11,12,9.40
2010,10,17,11,13,9.40
2010,10,17,11,14,9.50
2010,10,17,11,15,9.50
2010,10,17,11,16,9.50
2010,10,17,11,17,9.50
2010,10,17,11,18,9.60
2010,10,17,11,19,9.50
2010,10,17,11,20,9.50
2010,10,17,11,21,9.40
2010,10,17,11,22,9.40
2010,10,17,11,23,9.50
2010,10,17,11,24,9.50
2010,10,17,11,25,9.50
2010,10,17,11,26,9.50
2010,10,17,11,27,9.50
2010,10,17,11,28,9.60
2010,10,17,11,29,9.70
2010,10,17,11,30,9.70
2010,10,17,11,31,9.70
2010,10,17,11,32,9.70
2010,10,17,11,33,9.70
2010,10,17,11,34,9.80
2010,10,17,11,35,9.80
2010,10,17,11,36,9.90
2010,10,17,11,37,9.90
2010,10,17,11,38,9.90
2010,10,17,11,39,9.90
2010,10,17,11,40,10.10
2010,10,17,11,41,10.10
2010,10,17,11,42,10.10
2010,10,17,11,43,10.10
2010,10,17,11,44,10.10
2010,10,17,11,45,10.10
2010,10,17,11,46,10.10
2010,10,17,11,47,10.20
2010,10,17,11,48,10.20
2010,10,17,11,49,10.20
2010,10,17,11,50,10.20
2010,10,17,11,51,10.20
2010,10,17,11,52,10.20
2010,10,17,11,53,10.20
2010,10,17,11,54,10.30
2010,10,17,11,55,10.30
2010,10,17,11,56,10.30
2010,10,17,11,57,10.40
2010,10,17,11,58,10.40
2010,10,17,11,59,10.40
2010,10,17,12,00,10.40
2010,10,17,12,01,10.40
2010,10,17,12,02,10.40
2010,10,17,12,03,10.40
2010,10,17,12,04,10.40
2010,10,17,12,05,10.40
2010,10,17,12,06,10.40
2010,10,17,12,07,10.40
2010,10,17,12,08,10.40
2010,10,17,12,09,10.40
2010,10,17,12,10,10.40
2010,10,17,12,11,10.40
2010,10,17,12,12,10.50
2010,10,17,12,13,10.60
2010,10,17,12,14,10.60
2010,10,17,12,15,10.60
2010,10,17,12,16,10.70
2010,10,17,12,17,10.60
2010,10,17,12,18,10.60
2010,10,17,12,19,10.50
2010,10,17,12,20,10.40
2010,10,17,12,21,10.40
2010,10,17,12,22,10.40
2010,10,17,12,23,10.50
2010,10,17,12,24,10.60
2010,10,17,12,25,10.60
2010,10,17,12,26,10.60
2010,10,17,12,27,10.70
2010,10,17,12,28,10.70
2010,10,17,12,29,10.60
2010,10,17,12,30,10.60
2010,10,17,12,31,10.60
2010,10,17,12,32,10.60
2010,10,17,12,33,10.70
2010,10,17,12,34,10.70
2010,10,17,12,35,10.80
2010,10,17,12,36,10.90
2010,10,17,12,37,10.90
2010,10,17,12,38,10.80
2010,10,17,12,39,10.80
2010,10,17,12,40,10.80
2010,10,17,12,41,10.80
2010,10,17,12,42,10.70
2010,10,17,12,43,10.70
2010,10,17,12,44,10.70
2010,10,17,12,45,10.70
2010,10,17,12,46,10.70
2010,10,17,12,47,10.70
2010,10,17,12,48,10.80
2010,10,17,12,49,10.80
2010,10,17,12,50,10.90
2010,10,17,12,51,10.90
2010,10,17,12,52,10.90
2010,10,17,12,53,10.90
2010,10,17,12,54,10.90
2010,10,17,12,55,10.90
2010,10,17,12,56,10.90
2010,10,17,12,57,11.00
2010,10,17,12,58,11.10
2010,10,17,12,59,11.10
2010,10,17,13,00,11.10
2010,10,17,13,01,11.10
2010,10,17,13,02,11.00
2010,10,17,13,03,10.90
2010,10,17,13,04,10.90
2010,10,17,13,05,10.90
2010,10,17,13,06,10.90
2010,10,17,13,07,10.90
2010,10,17,13,08,11.00
2010,10,17,13,09,11.10
2010,10,17,13,10,11.10
2010,10,17,13,11,11.10
2010,10,17,13,12,11.10
2010,10,17,13,13,11.20
2010,10,17,13,14,11.20
2010,10,17,13,15,11.30
2010,10,17,13,16,11.30
2010,10,17,13,17,11.30
2010,10,17,13,18,11.40
2010,10,17,13,19,11.40
2010,10,17,13,20,11.40
2010,10,17,13,21,11.40
2010,10,17,13,22,11.40
2010,10,17,13,23,11.40
2010,10,17,13,24,11.40
2010,10,17,13,25,11.40
2010,10,17,13,26,11.50
2010,10,17,13,27,11.60
2010,10,17,13,28,11.60
2010,10,17,13,29,11.60
2010,10,17,13,30,11.50
2010,10,17,13,31,11.40
2010,10,17,13,32,11.40
2010,10,17,13,33,11.40
2010,10,17,13,34,11.40
2010,10,17,13,35,11.50
2010,10,17,13,36,11.60
2010,10,17,13,37,11.60
2010,10,17,13,38,11.60
2010,10,17,13,39,11.60
2010,10,17,13,40,11.60
2010,10,17,13,41,11.60
2010,10,17,13,42,11.60
2010,10,17,13,43,11.60
2010,10,17,13,44,11.60
2010,10,17,13,45,11.60
2010,10,17,13,46,11.60
2010,10,17,13,47,11.70
2010,10,17,13,48,11.70
2010,10,17,13,49,11.70
2010,10,17,13,50,11.70
2010,10,17,13,51,11.70
2010,10,17,13,52,11.80
2010,10,17,13,53,11.80
2010,10,17,13,54,11.80
2010,10,17,13,55,11.80
2010,10,17,13,56,11.80
2010,10,17,13,57,11.80
2010,10,17,13,58,11.80
2010,10,17,13,59,11.80
2010,10,17,14,00,11.80
2010,10,17,14,01,11.80
2010,10,17,14,02,11.80
2010,10,17,14,03,11.80
2010,10,17,14,04,11.80
2010,10,17,14,05,11.80
2010,10,17,14,06,11.80
2010,10,17,14,07,11.90
2010,10,17,14,08,11.90
2010,10,17,14,09,11.90
2010,10,17,14,10,11.90
2010,10,17,14,11,12.00
2010,10,17,14,12,12.00
2010,10,17,14,13,12.10
2010,10,17,14,14,12.10
2010,10,17,14,15,12.10
2010,10,17,14,16,12.00
2010,10,17,14,17,12.00
2010,10,17,14,18,12.00
2010,10,17,14,19,12.00
2010,10,17,14,20,12.00
2010,10,17,14,21,12.00
2010,10,17,14,22,12.00
2010,10,17,14,23,12.00
2010,10,17,14,24,12.00
2010,10,17,14,25,12.00
2010,10,17,14,26,12.00
2010,10,17,14,27,12.10
2010,10,17,14,28,12.10
2010,10,17,14,29,12.10
2010,10,17,14,30,12.10
2010,10,17,14,31,12.10
2010,10,17,14,32,12.20
2010,10,17,14,33,12.30
2010,10,17,14,34,12.30
2010,10,17,14,35,12.40
2010,10,17,14,36,12.50
2010,10,17,14,37,12.60
2010,10,17,14,38,12.60
2010,10,17,14,39,12.60
2010,10,17,14,40,12.60
2010,10,17,14,41,12.70
2010,10,17,14,42,12.70
2010,10,17,14,43,12.70
2010,10,17,14,44,12.60
2010,10,17,14,45,12.60
2010,10,17,14,46,12.60
2010,10,17,14,47,12.60
2010,10,17,14,48,12.60
2010,10,17,14,49,12.70
2010,10,17,14,50,12.70
2010,10,17,14,51,12.60
2010,10,17,14,52,12.70
2010,10,17,14,53,12.70
2010,10,17,14,54,12.80
2010,10,17,14,55,12.80
2010,10,17,14,56,12.80
2010,10,17,14,57,12.80
2010,10,17,14,58,12.80
2010,10,17,14,59,12.80
2010,10,17,15,00,12.80
2010,10,17,15,01,12.80
2010,10,17,15,02,12.70
2010,10,17,15,03,12.70
2010,10,17,15,04,12.60
2010,10,17,15,05,12.60
2010,10,17,15,06,12.60
2010,10,17,15,07,12.70
2010,10,17,15,08,12.80
2010,10,17,15,09,12.80
2010,10,17,15,10,12.80
2010,10,17,15,11,12.80
2010,10,17,15,12,12.80
2010,10,17,15,13,12.80
2010,10,17,15,14,12.80
2010,10,17,15,15,12.80
2010,10,17,15,16,12.80
2010,10,17,15,17,12.80
2010,10,17,15,18,12.80
2010,10,17,15,19,12.90
2010,10,17,15,20,13.00
2010,10,17,15,21,13.00
2010,10,17,15,22,13.00
2010,10,17,15,23,13.00
2010,10,17,15,24,13.00
2010,10,17,15,25,13.00
2010,10,17,15,26,12.90
2010,10,17,15,27,12.90
2010,10,17,15,28,12.80
2010,10,17,15,29,12.80
2010,10,17,15,30,12.80
2010,10,17,15,31,12.80
2010,10,17,15,32,12.80
2010,10,17,15,33,12.80
2010,10,17,15,34,12.90
2010,10,17,15,35,12.90
2010,10,17,15,36,12.90
2010,10,17,15,37,12.90
2010,10,17,15,38,12.90
2010,10,17,15,39,12.80
2010,10,17,15,40,12.80
2010,10,17,15,41,12.80
2010,10,17,15,42,12.80
2010,10,17,15,43,12.80
2010,10,17,15,44,12.80
2010,10,17,15,45,12.80
2010,10,17,15,46,12.80
2010,10,17,15,47,12.80
2010,10,17,15,48,12.80
2010,10,17,15,49,12.70
2010,10,17,15,50,12.70
2010,10,17,15,51,12.70
2010,10,17,15,52,12.60
2010,10,17,15,53,12.60
2010,10,17,15,54,12.60
2010,10,17,15,55,12.60
2010,10,17,15,56,12.70
2010,10,17,15,57,12.70
2010,10,17,15,58,12.70
2010,10,17,15,59,12.70
2010,10,17,16,00,12.70
2010,10,17,16,01,12.70
2010,10,17,16,02,12.60
2010,10,17,16,03,12.60
2010,10,17,16,04,12.60
2010,10,17,16,05,12.70
2010,10,17,16,06,12.70
2010,10,17,16,07,12.80
2010,10,17,16,08,12.80
2010,10,17,16,09,12.80
2010,10,17,16,10,12.80
2010,10,17,16,11,12.80
2010,10,17,16,12,12.80
2010,10,17,16,13,12.80
2010,10,17,16,14,12.80
2010,10,17,16,15,12.80
2010,10,17,16,16,12.80
2010,10,17,16,17,12.80
2010,10,17,16,18,12.80
2010,10,17,16,19,12.80
2010,10,17,16,20,12.80
2010,10,17,16,21,12.80
2010,10,17,16,22,12.90
2010,10,17,16,23,12.90
2010,10,17,16,24,13.00
2010,10,17,16,25,13.00
2010,10,17,16,26,13.10
2010,10,17,16,27,13.10
2010,10,17,16,28,13.20
2010,10,17,16,29,13.20
2010,10,17,16,30,13.20
2010,10,17,16,31,13.20
2010,10,17,16,32,13.10
2010,10,17,16,33,13.10
2010,10,17,16,34,13.00
2010,10,17,16,35,12.90
2010,10,17,16,36,12.90
2010,10,17,16,37,12.80
2010,10,17,16,38,12.80
2010,10,17,16,39,12.80
2010,10,17,16,40,12.80
2010,10,17,16,41,12.80
2010,10,17,16,42,12.80
2010,10,17,16,43,12.90
2010,10,17,16,44,12.90
2010,10,17,16,45,12.90
2010,10,17,16,46,12.90
2010,10,17,16,47,12.80
2010,10,17,16,48,12.80
2010,10,17,16,49,12.80
2010,10,17,16,50,12.70
2010,10,17,16,51,12.70
2010,10,17,16,52,12.60
2010,10,17,16,53,12.60
2010,10,17,16,54,12.50
2010,10,17,16,55,12.50
2010,10,17,16,56,12.40
2010,10,17,16,57,12.40
2010,10,17,16,58,12.40
2010,10,17,16,59,12.30
2010,10,17,17,00,12.30
2010,10,17,17,01,12.30
2010,10,17,17,02,12.30
2010,10,17,17,03,12.30
2010,10,17,17,04,12.30
2010,10,17,17,05,12.30
2010,10,17,17,06,12.30
2010,10,17,17,07,12.30
2010,10,17,17,08,12.30
2010,10,17,17,09,12.20
2010,10,17,17,10,12.10
2010,10,17,17,11,12.00
2010,10,17,17,12,12.00
2010,10,17,17,13,11.90
2010,10,17,17,14,11.80
2010,10,17,17,15,11.80
2010,10,17,17,16,11.70
2010,10,17,17,17,11.60
2010,10,17,17,18,11.60
2010,10,17,17,19,11.50
2010,10,17,17,20,11.40
2010,10,17,17,21,11.40
2010,10,17,17,22,11.40
2010,10,17,17,23,11.30
2010,10,17,17,24,11.30
2010,10,17,17,25,11.20
2010,10,17,17,26,11.20
2010,10,17,17,27,11.20
2010,10,17,17,28,11.10
2010,10,17,17,29,11.10
2010,10,17,17,30,11.10
2010,10,17,17,31,11.10
2010,10,17,17,32,11.00
2010,10,17,17,33,10.90
2010,10,17,17,34,10.90
2010,10,17,17,35,10.90
2010,10,17,17,36,10.80
2010,10,17,17,37,10.80
2010,10,17,17,38,10.70
2010,10,17,17,39,10.70
2010,10,17,17,40,10.60
2010,10,17,17,41,10.60
2010,10,17,17,42,10.60
2010,10,17,17,43,10.60
2010,10,17,17,44,10.60
2010,10,17,17,45,10.50
2010,10,17,17,46,10.40
2010,10,17,17,47,10.40
2010,10,17,17,48,10.40
2010,10,17,17,49,10.40